Back to catalog

METEOR 2-5 DEB

AlivePO
NORAD 45512·DEBRIS·🇷🇺 Russia

Launched Oct 31, 1979 from Plesetsk Cosmodrome

Loading…

Next Passes (next 24 hours)

TLE

FreshSource: Space-Track

Epoch: Sep 13, 2026, 06:58 UTC

1 45512U 79095CU  26256.29080255  .00002153  00000-0  84777-3 0  9996
2 45512  81.2227 104.9142 0014322 317.6725  42.3350 14.28869204578691

Track METEOR 2-5 DEB in real time with AllMySat

Download on the App Store